{"data":{"norad_id":43798,"epoch":"2026-09-20T04:23:51.204192Z","epoch_age_seconds":85708,"freshness":"FRESH","line1":"1 43798U 18099AS  26263.18323153  .00035282  00000+0  50252-3 0  9999","line2":"2 43798  97.4297 345.0708 0003533 219.3144 140.7854 15.56254136429176","mean_motion":15.56254136,"eccentricity":0.0003533,"inclination_deg":97.4297,"raan_deg":345.0708,"arg_perigee_deg":219.3144,"mean_anomaly_deg":140.7854,"bstar":0.00050252,"rev_number":42917,"period_min":92.529874567993,"perigee_km":396.11527006586,"apogee_km":400.90364845397,"semimajor_km":6776.6464592599,"source":"CELESTRAK","updated_at":"2026-09-20T09:00:14.407354Z"}}